sat.trackr.live / text

‹ back to catalog

STARLINK-31148

NORAD 58741 · 2024-005P

PAYLOAD ACTIVE UNKNOWN

§ Identity

Operator
Country
US
Launch date
2024-01-07
Launch site
AFETR
Launch vehicle
Mass (kg)
RCS (m²)

Purposes: comms

External: N2YO · Heavens-Above · Gunter

§ Orbital elements

Epoch: 2026-05-25T00:58:35.207328Z

Period
94.27 min
Inclination
43.0005°
Eccentricity
0.0000901
Mean motion
15.27573792 rev/d
Perigee alt
482.4 km
Apogee alt
483.7 km
Semi-major
6,861.2 km
B*
-5.9005e-6
RAAN
148.3104°
Arg perigee
268.3516°
Mean anomaly
91.7232°
Rev number
13,212

§ Raw data

STARLINK-311481 58741U 24005P   26145.04068527 -.00000424  00000+0 -59005-5 0  99912 58741  43.0005 148.3104 0000901 268.3516  91.7232 15.27573792132122

JSON: /api/v1/satellites/58741 · /tle

For live sub-satellite position, see the globe view (requires WebGL).

§ Visibility from observer

Set your observer location to see the next 7 days of passes ≥ 10°. The values pass through the URL so the page stays shareable.

No JS? Fill the form by hand. The geolocation button needs JavaScript.